Location: Unspecified
(41.1637°N, 24.2901°E)
Time: 11:50:00
(UTC+02:00)

ISS - Pass Details

Date: 15 May 2026
Orbit: 414 x 424 km, 51.6° (Epoch: 12 May)

Event Time Altitude Azimuth Distance (km) Brightness Sun altitude
Rises 23:24:50 0° 310° (NW) 2,355 0.8 -28.5°
Reaches altitude 10° 23:27:06 10° 322° (NW) 1,491 -0.2 -28.6°
Enters shadow 23:28:15 18° 335° (NNW) 1,114 -0.9 -28.7°
